Terminal Aerodrome Forecast
Issued by NWS Buffalo, NY

Home | Current Version | Previous Version | Text Only | Print | Product List | Glossary On
Versions: 1 2 3 4 5 6 7 8 9 10 11 12 13 14 15 16 17 18 19 20 21 22 23
000
FTUS41 KBUF 251100
TAFART
TAF
KART 251138Z 2512/2612 23020G34KT P6SM OVC025
     FM251600 24020G34KT P6SM VCSH BKN025
     FM252000 25018G30KT P6SM BKN025
     FM260800 25016G23KT P6SM BKN025=

USA.gov is the U.S. government's official web portal to all federal, state and local government web resources and services.